CZ-6A DEB, 54971

Orbit data source: Space-Track

CZ-6A DEB, 54971 is space debris in SSO originally from a launch on Fri, 11 Nov 2022 UTC launched from the Taiyaun Space Center, China (TSC). Debris objects in space refer to the collection of defunct objects orbiting the Earth. Examples of debris include non-operational satellites, rocket bodies, and fragments generated from explosions, collisions, or faulty payload assembly.

Loading next visibility...
Identifier
54971, 2022-151TL
Orbit
SSO
Country
Flag of CNCN / PRC
Related business
Manufacturer
SAST
Mission
Spacecraft
Bus & Motor
Unknown
Mass
Unknown
Launch date (UTC)
2022-11-11 (4 years ago)
Launch vehicle
Unknown
Launch site
Taiyaun Space Center, China (TSC)
Object type
Payload
Rocket body
Debris
Shape & HBR
Unknown shape, 0.2 m
Radar Cross Section
Medium (>0.1 m² and <1 m²)

Expand to show TLE details & history
Last TLE update: 2 days ago

TLE from 2 days ago
0 CZ-6A DEB
1 54971U 22151TL  26171.41225154  .00000388  00000-0  25903-3 0  9999
2 54971  98.8794 165.6130 0067036   4.1651 356.0061 14.05789324184618
Epoch: 2026-06-20T09:53Z
TLE epoch observation values (Epoch: 2026-06-20T09:53:38.533Z)
Latitude
-0.00003°
Longitude
108.5752°
Altitude
828.202 km
Speed
7.464 km/s
True Right ascension
11h 02m 27s
True Declination
0° 00' 00"
Sunlit
Object was in daylight at epoch
Visualization orbit readout
Latitude
Unknown
Longitude
Unknown
Altitude
Unknown
Speed
Unknown
Apparent Right ascension
Unknown
Apparent Declination
Unknown
Sunlit
N/A
Visualization observer readout
Local Sidereal Time
21:24:10
Azimuth
Unknown
Elevation
Unknown
Doppler factor
Unknown
Orbital elements
Apogee altitude
919.597 km
Perigee altitude
822.407 km
Semi-major axis
7,249.139 km
Eccentricity
0.0067
Inclination
98.8794°
RAAN
165.613°
Arg. of periapsis
4.1651°
True anomaly
355.95215°
Mean anomaly
356.0061°
Eccentric anomaly
355.97917°
Mean motion
3.51652 °/min
Orbital period
102.37 mins
BSTAR
0.00025903
Loading maneuver chart data...
Computing Atmospheric mass density...
Loading historical data...
Loading historical data...
Loading historical data...
Loading historical data...
Loading historical data...
Loading historical data...
Loading historical data...

Documentation

Showing up to 5 results
|